Dewpoint
53 54 53 56 56 56 58 60 59 58 57 57 57 56 57 57 56 56 55 53 53 54 54 54 54 54 50 46 44 52 60 59 44 35 31 31 33 31 21 18 19 17 18 29 41 41 40
53 54 54 55 56 56 56 57 60 59 58 57 56 56 56 56 56 56 55 54 53 54 54 54 54 53 49 34 43 52 48 42 37 32 32 32 31 31 21 19 24 24 27 36 39 38 36
53 53 54 54 55 56 57 56 56 59 58 57 57 56 56 56 55 55 54 54 54 53 54 54 53 49 47 33 43 44 43 37 35 30 32 34 33 31 29 26 29 29 21 38 40 40 38
53 54 53 53 54 55 55 56 55 58 59 58 57 56 55 55 54 54 54 53 53 54 54 54 52 48 43 45 45 42 36 33 31 32 32 32 33 33 32 30 28 27 21 19 36 36 37
50 53 53 53 53 54 55 55 55 56 58 58 57 56 55 54 54 53 53 53 53 54 54 53 48 48 44 47 42 42 35 34 31 30 31 30 32 32 31 27 26 25 18 20 25 32 33
49 49 51 52 53 53 54 54 55 55 56 58 57 56 55 54 53 52 52 53 53 53 51 49 48 43 42 35 38 33 32 32 34 34 34 32 31 29 29 27 24 24 20 20 22 25 31
49 49 51 50 52 52 53 54 55 55 55 57 57 56 55 54 53 53 51 49 46 47 47 39 33 35 32 36 34 30 32 33 35 37 32 39 31 28 30 30 29 29 28 26 20 21 31
50 50 51 50 51 52 52 53 54 55 55 56 57 56 55 54 53 53 50 46 46 43 41 45 44 42 39 39 31 30 34 31 34 33 38 33 30 33 32 32 31 29 28 25 23 22 29
50 49 50 50 51 50 52 52 52 54 55 56 56 56 54 53 53 51 48 47 48 45 43 44 46 44 43 38 31 29 30 31 30 31 33 31 31 35 33 29 27 28 27 26 26 21 15
49 49 49 50 50 50 51 52 52 53 54 55 56 55 54 53 48 49 49 51 50 47 40 38 39 42 31 28 31 30 26 31 31 31 33 31 33 33 32 30 29 26 28 25 27 20 11
49 49 49 49 49 47 50 50 51 52 54 53 55 55 53 51 49 49 49 49 49 50 22 32 39 35 27 28 29 26 28 26 30 33 32 26 32 31 31 30 31 29 31 29 27 26 26
50 48 47 48 49 48 47 50 51 51 53 53 54 54 53 52 51 49 50 50 54 41 29 34 32 26 26 28 28 25 24 26 31 34 33 29 34 33 33 33 32 34 30 31 33 30 23
47 49 48 47 48 49 48 47 50 50 52 53 54 54 52 51 46 52 53 51 39 34 33 29 27 27 26 26 27 25 24 22 21 26 28 30 31 33 36 30 33 31 28 25 23 25 23
45 45 48 47 46 48 49 47 47 50 51 53 54 53 53 50 51 52 54 48 34 33 34 32 27 26 24 25 25 24 22 20 24 25 28 25 25 31 35 32 31 30 26 26 20 23 24
44 44 48 47 45 46 48 48 47 49 50 52 53 53 52 51 51 51 50 40 33 37 28 27 26 25 24 24 23 22 23 21 21 22 20 29 30 35 34 35 33 28 27 30 31 31 27
44 45 48 47 46 45 45 48 48 48 50 52 51 50 50 51 51 49 46 36 38 38 35 33 24 26 22 21 22 21 21 23 24 23 31 33 29 34 35 34 32 29 28 25 28 22 22
44 45 48 46 46 45 46 45 47 47 49 51 49 45 50 52 51 45 38 36 38 38 40 36 31 26 24 22 22 22 20 21 24 32 34 35 29 31 36 32 29 26 25 26 26 27 21
43 45 46 46 45 45 46 45 47 47 49 49 46 40 50 52 42 40 39 37 39 37 41 40 38 34 26 26 25 22 23 22 32 36 31 36 35 31 30 33 33 26 27 29 25 19 27
43 44 45 45 45 44 45 45 45 48 48 45 43 44 51 48 36 34 38 39 38 36 38 38 36 35 31 26 26 27 31 39 40 33 33 35 32 26 25 25 31 27 25 28 31 29 24
43 45 45 45 45 44 44 44 45 47 48 47 44 38 45 47 40 32 34 36 37 38 37 40 39 39 33 28 30 30 35 39 40 36 40 36 30 27 24 21 27 27 28 28 26 26 25
43 44 44 44 44 44 44 44 44 47 48 47 44 37 39 39 39 35 33 36 36 35 39 39 36 37 36 28 27 34 37 36 39 39 37 33 27 27 26 28 30 28 27 27 24 25 23
43 43 43 43 43 43 44 44 45 46 49 44 40 40 42 41 39 38 35 33 32 32 34 33 36 37 34 28 28 30 36 35 32 36 33 34 27 28 27 29 27 26 25 24 25 25 27
43 43 42 42 43 43 43 44 44 46 48 42 45 46 42 37 39 38 35 33 31 32 35 34 36 35 35 33 35 33 37 38 37 34 34 33 33 28 26 26 24 22 24 24 25 27 25
42 42 42 42 42 43 44 43 45 45 46 46 44 45 44 36 40 38 37 35 33 33 31 38 37 37 37 42 40 38 36 40 40 40 39 34 33 29 25 23 16 26 26 25 25 24 24
42 42 42 42 43 43 43 44 44 45 46 45 46 46 44 36 38 41 39 35 33 36 39 34 38 39 43 42 38 33 33 32 32 35 37 39 34 30 23 23 25 24 22 21 23 25 28
42 42 42 43 43 43 43 43 44 44 46 44 47 49 46 41 38 40 41 37 33 37 38 40 47 48 47 42 34 29 28 30 30 29 35 36 36 30 28 20 16 25 26 26 28 25 31
42 42 43 43 43 43 43 44 44 45 45 45 46 49 45 43 46 42 39 38 37 39 41 45 44 44 44 34 31 29 29 33 29 28 26 29 29 25 22 21 24 29 29 29 17 21 32
43 43 43 43 44 44 44 44 44 44 45 46 45 49 46 44 44 49 43 37 37 40 39 43 43 43 40 35 34 31 27 32 32 34 30 28 28 24 30 24 21 34 27 24 29 35 34
41 42 43 45 44 43 44 44 44 45 46 47 44 49 49 43 45 49 48 48 47 41 46 45 41 43 44 41 38 35 32 30 31 29 36 29 30 29 31 30 34 32 32 36 36 38 39
Lifted_Index
10 10 9 8 7 6 5 4 4 4 4 5 6 7 8 8 9 9 9 10 10 10 10 10 10 10 9 6 4 2 1 2 3 3 3 2 1 1 0 1 1 1 0 -0 -0 -0 -0
10 10 10 9 8 7 6 5 5 4 4 5 5 7 8 8 9 9 9 9 10 10 10 10 10 10 8 6 3 2 1 2 3 3 2 2 1 1 0 0 1 0 -0 -0 -1 -1 -1
10 10 10 10 9 8 7 6 6 5 5 4 5 6 7 8 9 9 9 9 9 10 10 10 10 10 8 5 3 2 1 2 2 2 2 1 1 0 0 0 0 0 -0 -1 -1 -1 -1
11 10 10 10 10 9 9 8 7 6 5 5 4 5 7 8 9 10 10 9 9 10 10 10 10 9 7 5 3 2 1 1 1 1 1 1 1 0 0 0 0 0 -0 -0 -1 -1 -1
11 11 11 10 10 10 9 9 8 7 6 5 4 4 6 8 9 10 10 9 9 10 10 10 9 7 6 4 3 2 2 1 1 1 1 1 1 1 0 0 -0 -0 0 -0 -1 -1 -1
12 12 11 11 10 10 10 9 9 8 7 6 5 4 5 7 8 9 9 9 8 8 8 8 8 7 5 4 3 3 2 2 1 1 0 0 0 0 0 -0 -0 -0 0 0 -0 -0 -1
12 12 11 11 10 10 10 9 9 8 8 6 5 4 4 6 7 9 9 8 6 5 5 6 6 6 5 4 3 3 2 2 2 1 0 -0 0 0 0 -0 -1 -0 0 0 0 -0 -0
11 11 11 11 10 10 10 9 9 8 8 7 5 4 4 5 7 8 8 7 6 5 5 4 4 4 3 3 3 3 2 2 2 1 0 0 0 0 0 -0 -1 -0 0 0 0 -0 0
11 11 11 10 10 10 10 10 9 8 8 7 6 4 4 4 6 7 6 6 6 6 5 4 3 3 3 3 3 3 2 2 2 1 1 1 1 0 0 0 -0 0 0 1 0 0 0
11 11 11 10 10 10 10 9 9 8 8 7 6 4 3 4 6 5 3 3 5 5 5 4 3 4 4 4 4 3 2 2 2 2 1 1 1 1 1 1 1 1 1 1 0 0 0
10 11 11 11 11 10 10 9 9 8 7 7 5 4 3 4 5 4 2 1 3 3 3 3 3 4 5 4 4 3 3 2 2 2 2 1 1 1 1 1 1 1 0 0 0 -0 -0
11 11 11 11 11 11 10 10 9 8 7 7 5 3 2 2 3 3 2 1 1 2 2 3 3 4 5 4 4 3 3 3 2 2 2 1 1 1 1 0 0 0 -0 -0 -0 -0 -0
11 11 11 11 11 11 11 10 9 8 7 6 5 3 2 1 2 3 2 0 1 3 3 3 3 4 4 4 4 3 3 2 2 2 1 1 1 1 0 0 0 -0 -0 -0 -0 -0 0
12 11 11 11 11 11 11 11 10 9 7 6 5 3 2 1 2 2 1 1 2 3 3 3 3 3 4 4 3 3 2 2 2 2 1 0 0 0 0 0 0 -0 -0 -0 -0 0 0
12 11 10 10 11 11 11 11 10 9 8 6 5 4 2 2 2 2 2 2 3 3 3 3 3 3 3 3 3 3 2 2 2 1 1 0 0 -0 -0 0 0 0 -0 -0 -0 0 0
10 10 10 10 11 11 11 11 10 9 8 7 6 5 3 2 2 3 3 4 4 3 2 2 2 3 3 3 3 2 2 2 2 1 1 0 -0 -0 -0 -0 0 0 0 -0 -0 0 0
9 9 9 10 11 11 11 11 10 9 8 7 6 5 4 2 2 3 5 5 4 2 1 1 2 2 3 3 3 2 2 2 1 1 1 0 -0 0 0 0 -0 -0 0 -0 -0 0 0
8 8 8 9 11 11 12 12 11 10 8 7 6 5 4 2 3 4 6 6 4 2 1 1 1 2 2 2 2 2 2 1 1 1 0 0 -0 -0 0 0 -0 -0 -0 -0 -0 0 0
8 8 7 8 9 11 12 12 11 10 9 8 6 5 4 3 3 5 6 5 4 3 2 1 1 1 2 2 2 2 1 0 -0 0 0 -0 -0 -0 0 0 -0 -0 -0 -0 -0 0 0
8 8 7 8 9 10 11 12 11 10 9 7 6 5 4 4 4 5 6 6 4 3 2 2 1 1 1 1 1 1 1 -0 -0 -0 -0 -0 -0 0 0 0 0 0 -0 -0 0 0 1
8 8 8 8 8 9 10 11 11 10 8 7 6 5 5 5 5 5 6 6 5 4 3 2 1 1 1 1 1 0 0 0 -0 -0 -0 -0 0 1 1 1 1 0 0 0 0 0 1
8 8 8 8 8 9 10 10 10 9 8 7 6 5 5 5 5 5 6 6 6 4 3 2 1 0 0 0 0 0 0 0 0 -0 0 0 1 1 1 1 1 1 1 1 0 0 0
8 8 8 9 9 9 9 10 10 9 8 7 6 5 5 5 4 5 6 6 6 5 4 2 1 0 0 0 -0 -0 -0 0 0 0 0 1 1 2 2 2 2 2 2 1 1 1 1
8 8 8 9 9 8 9 9 9 8 8 7 6 5 5 5 4 5 5 6 5 4 3 2 1 0 -0 -0 -1 -1 -1 -0 -0 -0 -0 0 1 1 2 2 2 2 3 3 2 2 2
8 8 8 8 8 8 8 8 8 8 8 7 6 6 5 5 4 4 4 5 4 3 2 1 1 -0 -1 -1 -1 -1 -1 -0 -0 -0 -0 -0 0 1 1 1 2 3 3 3 3 3 3
8 8 8 8 8 7 7 7 7 7 7 7 6 6 6 5 4 4 4 4 3 2 1 0 -0 -1 -1 -1 -1 -0 -0 0 0 0 0 -0 -0 0 1 1 2 3 3 3 3 3 3
7 7 7 7 7 7 6 6 6 7 7 7 6 6 6 5 3 3 3 3 3 2 1 -0 -1 -1 -1 -1 -1 -0 0 0 1 1 1 0 0 0 1 1 2 3 3 3 3 3 3
7 6 6 6 6 6 6 6 6 7 7 6 6 7 6 5 3 2 2 2 2 2 1 -0 -1 -1 -1 -1 -0 -0 0 1 1 1 1 1 1 1 1 2 2 3 3 3 3 3 3
7 6 6 5 5 5 5 6 6 7 7 6 6 7 7 5 3 2 1 2 2 1 0 -0 -0 -0 -1 -1 -0 -0 0 1 1 1 1 2 2 2 2 2 3 3 3 3 3 3 3